Weather Roundup
Issued by NWS Corpus Christi, TX

Home | Current Version | Previous Version | Text Only | Print | Product List | Glossary On
Versions: 1 2 3 4 5 6 7 8 9 10 11 12 13 14 15 16 17 18 19 20 21 22 23 24 25 26 27 28 29 30 31 32 33 34 35 36 37 38 39 40 41 42 43 44 45 46 47 48 49 50
000
ASUS44 KCRP 031510
HRRCRP

SOUTH TEXAS REGIONAL WEATHER ROUNDUP
NATIONAL WEATHER SERVICE CORPUS CHRISTI TX
900 AM CST TUE MAR 03 2015


TXZ229>244-031600-
...CORPUS CHRISTI AREA OBSERVATIONS...

CITY           SKY/WX    TMP DP  RH WIND       PRES   REMARKS
CORPUS CHRISTI DRZL/FOG  55  55 100 NW6       30.01S VSB 1/4
NAS CORPUS CHR FOG       58  58 100 CALM      30.01S VSB 1/16
ROCKPORT       FOG       65  64  97 VRB6      30.01R VSB 1/4
KINGSVILLE NAS FOG       54  54 100 NW6       30.02S VSB 1/16
ALICE          FOG       52  51  97 NW6       30.01S VSB 1/2
FALFURRIAS     CLOUDY    53  51  95 NW3       30.02R VSB 1/2
$$

...VICTORIA AREA OBSERVATIONS...

CITY           SKY/WX    TMP DP  RH WIND       PRES   REMARKS
VICTORIA       FOG       57  57 100 E3        30.02S VSB 1/4
BEEVILLE       FOG       50  50 100 NW5       30.02R VSB 1/4
PLEASANTON     CLOUDY    47  46  97 CALM      30.02F FOG
SAN ANTONIO    DRZL/FOG  50  49  96 E3        30.01S VSB 1/2
$$

...LAREDO AREA OBSERVATIONS...

CITY           SKY/WX    TMP DP  RH WIND       PRES   REMARKS
LAREDO         CLOUDY    49  49 100 CALM      30.04R FOG
COTULLA        CLOUDY    49  47  93 SE3       30.02R FOG
DEL RIO        CLOUDY    50  47  89 SE7       29.99S
MCALLEN        CLOUDY    55  54  96 CALM      30.03S FOG
HEBBRONVILLE   HVY RAIN N/A N/A N/A CALM      30.02S VSB 1/2
$$

...OTHER TEXAS OBSERVATIONS...

CITY           SKY/WX    TMP DP  RH WIND       PRES   REMARKS
BROWNSVILLE    FOG       60  60 100 CALM      30.03R VSB 1/2
HOUSTON        FOG       61  61 100 E6        30.04S VSB 1/8
COL. STATION   FOG       48  48 100 CALM      30.03F VSB 1/4
AUSTIN         FOG       43  43 100 CALM      30.02F VSB 1/4
WACO           FOG       41  41 100 CALM      30.02S VSB 1/2
FORT WORTH     CLOUDY    43  42  97 S6        30.00R FOG
WICHITA FALLS  CLOUDY    40  39  97 S7        29.98S FOG
LUBBOCK        CLOUDY    39  38  96 W7        29.91S FOG
EL PASO        LGT RAIN  53  48  83 CALM      29.90R
$$

...MARINE OBSERVATIONS...

STATION/POSITION TIME  SKY/WX   TEMP    WIND        PRES    VSBY  WAVE   SWELL
                                AIR SEA DIR/SP/G                  HT/PER HT/PER
                 (UTC)          (F)     (DEG/KT/KT) (MB)    (MI)  (FT/S) (FT/S)
PORT ARANSAS     1500            60 55  180/  6/  6 1016.3R
BUOY 90 E PORT A 1500            70 69  150/ 14/ 16 1017.2R         3/ 4   2/ 8
BUOY 45 SE BAFFI 1500            68 66  180/ 12/ 14 1016.2R         3/ 4   2/ 7
BUOY 200 E PT IS 1500            71 71  140/ 10/ 12 1018.2R         2/ 7   2/ 7
BUOY 15 E GALVES 1500            61 58  140/  6/  6 1017.5R         2/ 7   2/ 7
$$


USA.gov is the U.S. government's official web portal to all federal, state and local government web resources and services.